アトラス彗星

C/2021 P4 ( ATLAS )

English version
Home page
Updated on August 28, 2022

---------------------------------------------------------------------

・ プロフィール

発見日 2021年8月10日
発見光度 19.4等
発見者 Asteroid Terrestrial-Impact Last Alert System (ATLAS) search program

・ 写真集

・ 軌道要素

Epoch 2022 Jan. 21.0 TT = JDT 2459600.5
T 2022 July 30.37635 TT                                 Rudenko
q   1.0804713            (2000.0)            P               Q
z  +0.0031843      Peri.  175.82226     -0.96755482     -0.18540626
 +/-0.0000014      Node   348.09497     +0.20093035     -0.15276370
e   0.9965594      Incl.   56.31080     +0.15318177     -0.97071508
From 750 observations 2021 Aug. 10-2022 May 18, mean residual 0".6.

・ 星図

・ 光度変化

        m1 = 7.8 + 5 logΔ + 11.5 log r

---------------------------------------------------------------------

軌道要素はM.P.E.C. 2022-K19に掲載されたものです。
星図はステラナビゲータ Ver.10 (アストロアーツ) で作成したものです。
光度グラフはComet for Windowsで作成したものです。

---------------------------------------------------------------------

Copyright(C) Seiichi Yoshida (comet@aerith.net). All rights reserved.